This is the latest recevied weather packets stored in our database for station/object W4SKW. If no packets are shown the sender has not sent any weather packets the latest 10 day(s).
| Time | Temp. | Humidity | Pressure | Rain* | Wind** | Luminosity | Snow |
|---|---|---|---|---|---|---|---|
| 1777683903 | 13.33° C | 88% | 1014.5 hPa | 0 mm | - | 0 W/m² | - |
| 1777683598 | 13.33° C | 88% | 1014.6 hPa | 0 mm | - | 0 W/m² | - |
| 1777683296 | 13.89° C | 87% | 1014.5 hPa | 0 mm | - | 0 W/m² | - |
| 1777682994 | 13.89° C | 86% | 1014.4 hPa | 0 mm | - | 0 W/m² | - |
| 1777682689 | 13.89° C | 86% | 1014.4 hPa | 0 mm | - | 0 W/m² | - |
| 1777682387 | 13.89° C | 86% | 1014.4 hPa | 0 mm | - | 0 W/m² | - |
| 1777682084 | 13.89° C | 86% | 1014.3 hPa | 0 mm | - | 0 W/m² | - |
| 1777681780 | 14.44° C | 85% | 1014.2 hPa | 0 mm | - | 1 W/m² | - |
| 1777681478 | 14.44° C | 84% | 1014.3 hPa | 0 mm | - | 1 W/m² | - |
| 1777681175 | 15° C | 83% | 1014.2 hPa | 0 mm | - | 3 W/m² | - |
| 1777680872 | 15° C | 83% | 1014.2 hPa | 0 mm | - | 3 W/m² | - |
| 1777680570 | 15.56° C | 83% | 1014.3 hPa | 0 mm | - | 6 W/m² | - |
| 1777680269 | 15.56° C | 83% | 1014.3 hPa | 0 mm | - | 6 W/m² | - |
| 1777679964 | 15.56° C | 82% | 1014.2 hPa | 0 mm | - | 9 W/m² | - |
| 1777679660 | 15.56° C | 83% | 1014.1 hPa | 0 mm | - | 10 W/m² | - |
| 1777679355 | 15.56° C | 82% | 1014 hPa | 0 mm | - | 14 W/m² | - |
| 1777679052 | 16.11° C | 79% | 1014.1 hPa | 0 mm | - | 17 W/m² | - |
| 1777678751 | 16.67° C | 80% | 1014.5 hPa | 0 mm | - | 23 W/m² | - |
| 1777678448 | 16.67° C | 80% | 1014.5 hPa | 0 mm | - | 23 W/m² | - |
| 1777678143 | 16.67° C | 79% | 1014.3 hPa | 0 mm | - | 24 W/m² | - |
| 1777677841 | 16.67° C | 82% | 1014.3 hPa | 0 mm | - | 33 W/m² | - |
| 1777677538 | 16.67° C | 79% | 1014.2 hPa | 0 mm | - | 37 W/m² | - |
| 1777677236 | 17.22° C | 77% | 1014.4 hPa | 0 mm | - | 37 W/m² | - |
| 1777676934 | 17.22° C | 72% | 1013.9 hPa | 0 mm | - | 54 W/m² | - |
| 1777676633 | 17.22° C | 72% | 1013.9 hPa | 0 mm | - | 54 W/m² | - |
* Rain latest hour (hover to see other rain measurements)
** Current wind speed in m/s (hover to see current wind gust speed)